Tracking 19795 objects as of 17-Jul-2019
HD Live streaming from Space Station
objects crossing your sky now

BREEZE-M DEB (TANK)

Track BREEZE-M DEB (TANK) now!
10-day predictions


NORAD ID: 39524
Int'l Code: 2014-007C
Perigee: 284.9 km
Apogee: 21,687.6 km
Inclination: 49.2 °
Period: 379.3 minutes
Semi major axis: 17357 km
RCS: Unknown
Launch date: February 14, 2014
Source: Commonwealth of Independent States (former USSR) (CIS)
Launch site: TYURATAM MISSILE AND SPACE COMPLEX (TTMTR)

Note: This is SATELLITE DEBRIS
aabbcc
Your satellite tracking list
Your tracking list is empty




NASA's NSSDC Master Catalog

Two Line Element Set (TLE):
1 39524U 14007C   19197.47545439  .00000957  00000-0  19241-3 0  9994
2 39524  49.2271 205.8128 6165347 122.5014 311.9744  3.79648736 74062
Source of the keplerian elements: AFSPC